When you browse on this site, cookies collect data to enhance your experience and personalize the content and advertising you see.
Visit our Privacy Policy to learn more. By continuing to use the site, you agree to this use of cookies and data.
  • In Czech Republic
  • List of Countries
  • For 7 days
  • Water Temperature
  • Weather Map
  • Weather Widgets
  • user-avatar
    Login

    Hourly Weather Koeln

    Today, 23 February, Sunday

    Time Temperature Precipitation Wind Pressure Humidity
    00:00 +8°C° 0 mm 6 mps 761 mmHg 84%
    01:00 +8°C° 0.2 mm 6 mps 760 mmHg 83%
    02:00 +8°C° 0.2 mm 6 mps 760 mmHg 83%
    03:00 +8°C° 0.2 mm 6 mps 759 mmHg 83%
    04:00 +8°C° 0.8 mm 6 mps 758 mmHg 84%
    05:00 +8°C° 0.8 mm 5 mps 758 mmHg 86%
    06:00 +9°C° 0 mm 3 mps 757 mmHg 86%
    07:00 +9°C° 1 mm 6 mps 756 mmHg 84%
    08:00 +10°C° 1 mm 8 mps 755 mmHg 82%
    09:00 +11°C° 1 mm 11 mps 754 mmHg 80%
    10:00 +11°C° 0.7 mm 11 mps 753 mmHg 80%
    11:00 +12°C° 0.7 mm 12 mps 753 mmHg 79%
    12:00 +12°C° 0.7 mm 12 mps 753 mmHg 78%
    13:00 +12°C° 1 mm 12 mps 753 mmHg 79%
    14:00 +12°C° 1 mm 12 mps 753 mmHg 79%
    15:00 +12°C° 1 mm 11 mps 753 mmHg 79%
    16:00 +11°C° 1.1 mm 10 mps 754 mmHg 77%
    17:00 +8°C° 1.1 mm 9 mps 755 mmHg 75%
    18:00 +7°C° 1.1 mm 8 mps 757 mmHg 73%
    19:00 +6°C° 0 mm 7 mps 758 mmHg 72%
    20:00 +5°C° 0 mm 6 mps 759 mmHg 70%
    21:00 +5°C° 0 mm 5 mps 761 mmHg 68%
    22:00 +4°C° 0 mm 4 mps 761 mmHg 69%
    23:00 +4°C° 0 mm 4 mps 762 mmHg 71%

    Tomorrow, 24 February, Monday

    Time Temperature Precipitation Wind Pressure Humidity
    00:00 +4°C° 0 mm 3 mps 763 mmHg 72%
    01:00 +3°C° 0 mm 3 mps 763 mmHg 74%
    02:00 +4°C° 0 mm 2 mps 763 mmHg 76%
    03:00 +3°C° 0 mm 2 mps 763 mmHg 78%
    04:00 +4°C° 0 mm 2 mps 762 mmHg 78%
    05:00 +4°C° 0 mm 2 mps 762 mmHg 78%
    06:00 +4°C° 0 mm 2 mps 762 mmHg 78%
    07:00 +4°C° 0.1 mm 2 mps 761 mmHg 78%
    08:00 +4°C° 0.1 mm 3 mps 760 mmHg 79%
    09:00 +4°C° 0.1 mm 3 mps 759 mmHg 79%
    10:00 +6°C° 0.1 mm 4 mps 758 mmHg 81%
    11:00 +7°C° 0.1 mm 4 mps 757 mmHg 83%
    12:00 +9°C° 0.1 mm 5 mps 756 mmHg 85%
    13:00 +9°C° 0 mm 5 mps 754 mmHg 83%
    14:00 +10°C° 0 mm 5 mps 753 mmHg 82%
    15:00 +11°C° 0 mm 6 mps 752 mmHg 80%
    16:00 +10°C° 0 mm 6 mps 751 mmHg 80%
    17:00 +10°C° 0 mm 6 mps 751 mmHg 79%
    18:00 +10°C° 0 mm 6 mps 750 mmHg 78%
    19:00 +10°C° 0.2 mm 6 mps 749 mmHg 79%
    20:00 +10°C° 0.2 mm 7 mps 749 mmHg 81%
    21:00 +10°C° 0.2 mm 7 mps 748 mmHg 82%
    22:00 +10°C° 0.1 mm 7 mps 748 mmHg 82%
    23:00 +9°C° 0.1 mm 7 mps 748 mmHg 81%

    Day after tomorrow, 25 February, Tuesday

    Time Temperature Precipitation Wind Pressure Humidity
    00:00 +9°C° 0.1 mm 7 mps 748 mmHg 81%
    01:00 +9°C° 0.1 mm 7 mps 748 mmHg 78%
    02:00 +8°C° 0.1 mm 6 mps 747 mmHg 76%
    03:00 +7°C° 0.1 mm 6 mps 747 mmHg 74%
    04:00 +7°C° 0 mm 6 mps 747 mmHg 72%
    05:00 +5°C° 0 mm 6 mps 747 mmHg 70%
    06:00 +4°C° 0 mm 6 mps 747 mmHg 67%
    07:00 +4°C° 0 mm 6 mps 747 mmHg 65%
    08:00 +4°C° 0 mm 7 mps 747 mmHg 63%
    09:00 +5°C° 0 mm 7 mps 747 mmHg 61%
    10:00 +5°C° 0 mm 7 mps 747 mmHg 58%
    11:00 +6°C° 0 mm 8 mps 747 mmHg 56%
    12:00 +6°C° 0 mm 8 mps 746 mmHg 54%
    13:00 +6°C° 0.1 mm 8 mps 746 mmHg 54%
    14:00 +6°C° 0.1 mm 8 mps 746 mmHg 54%
    15:00 +6°C° 0.1 mm 8 mps 746 mmHg 53%
    16:00 +5°C° 0 mm 6 mps 745 mmHg 57%
    17:00 +5°C° 0 mm 5 mps 745 mmHg 60%
    18:00 +4°C° 0 mm 4 mps 745 mmHg 64%
    19:00 +4°C° 0 mm 4 mps 745 mmHg 67%
    20:00 +4°C° 0 mm 4 mps 745 mmHg 70%
    21:00 +4°C° 0 mm 4 mps 744 mmHg 74%
    22:00 +2°C° 0.8 mm 5 mps 743 mmHg 80%
    23:00 +2°C° 0.8 mm 5 mps 742 mmHg 86%

    26 February, Wednesday

    Time Temperature Precipitation Wind Pressure Humidity
    00:00 +2°C° 0.8 mm 5 mps 741 mmHg 92%
    01:00 +1°C° 0.8 mm 6 mps 741 mmHg 86%
    02:00 +1°C° 0.8 mm 6 mps 740 mmHg 80%
    03:00 +1°C° 0.8 mm 6 mps 740 mmHg 74%
    04:00 -1°C° 0 mm 6 mps 740 mmHg 74%
    05:00 -1°C° 0 mm 6 mps 739 mmHg 74%
    06:00 -1°C° 0 mm 6 mps 739 mmHg 74%
    07:00 -1°C° 0.1 mm 7 mps 740 mmHg 74%
    08:00 -1°C° 0.1 mm 7 mps 740 mmHg 74%
    09:00 -1°C° 0.1 mm 8 mps 740 mmHg 74%
    10:00 -1°C° 0.8 mm 7 mps 741 mmHg 76%
    11:00 0°C° 0.8 mm 7 mps 742 mmHg 79%
    12:00 +1°C° 0.8 mm 6 mps 742 mmHg 82%
    13:00 +2°C° 0.3 mm 6 mps 743 mmHg 79%
    14:00 +3°C° 0.3 mm 7 mps 744 mmHg 77%
    15:00 +3°C° 0.3 mm 7 mps 745 mmHg 74%
    16:00 +3°C° 0.3 mm 7 mps 746 mmHg 76%
    17:00 +2°C° 0.3 mm 6 mps 747 mmHg 78%
    18:00 +1°C° 0.3 mm 6 mps 748 mmHg 80%
    19:00 +1°C° 0 mm 6 mps 748 mmHg 81%
    20:00 +1°C° 0 mm 5 mps 749 mmHg 81%
    21:00 0°C° 0 mm 5 mps 750 mmHg 82%
    22:00 0°C° 0 mm 4 mps 750 mmHg 83%
    23:00 0°C° 0 mm 4 mps 750 mmHg 84%

    27 February, Thursday

    Time Temperature Precipitation Wind Pressure Humidity
    00:00 0°C° 0 mm 4 mps 751 mmHg 85%
    01:00 -1°C° 0 mm 4 mps 751 mmHg 86%
    02:00 -1°C° 0 mm 4 mps 751 mmHg 87%
    03:00 0°C° 0 mm 3 mps 751 mmHg 87%
    04:00 0°C° 0 mm 3 mps 751 mmHg 86%
    05:00 0°C° 0 mm 3 mps 751 mmHg 85%
    06:00 -1°C° 0 mm 3 mps 751 mmHg 84%
    07:00 0°C° 0 mm 3 mps 751 mmHg 81%
    08:00 0°C° 0 mm 4 mps 750 mmHg 77%
    09:00 +1°C° 0 mm 4 mps 750 mmHg 73%
    10:00 +1°C° 0.1 mm 5 mps 749 mmHg 74%
    11:00 +1°C° 0.1 mm 5 mps 747 mmHg 75%
    12:00 +2°C° 0.1 mm 6 mps 746 mmHg 76%
    13:00 0°C° 1.6 mm 7 mps 744 mmHg 80%
    14:00 0°C° 1.6 mm 7 mps 742 mmHg 84%
    15:00 0°C° 1.6 mm 8 mps 740 mmHg 88%
    16:00 +2°C° 0.9 mm 7 mps 739 mmHg 88%
    17:00 +4°C° 0.9 mm 7 mps 737 mmHg 88%
    18:00 +5°C° 0.9 mm 6 mps 736 mmHg 88%
    19:00 +4°C° 0.1 mm 7 mps 737 mmHg 85%
    20:00 +2°C° 0.1 mm 9 mps 738 mmHg 83%
    21:00 +2°C° 0.1 mm 10 mps 739 mmHg 80%
    22:00 +1°C° 0.1 mm 10 mps 740 mmHg 82%
    23:00 +1°C° 0.1 mm 10 mps 742 mmHg 85%

    28 February, Friday

    Time Temperature Precipitation Wind Pressure Humidity
    00:00 0°C° 0.1 mm 9 mps 744 mmHg 87%
    01:00 0°C° 0.2 mm 9 mps 745 mmHg 85%
    02:00 0°C° 0.2 mm 8 mps 747 mmHg 82%
    03:00 0°C° 0.2 mm 7 mps 748 mmHg 80%
    04:00 +1°C° 0 mm 6 mps 748 mmHg 80%
    05:00 +1°C° 0 mm 5 mps 749 mmHg 80%
    06:00 +1°C° 0 mm 4 mps 749 mmHg 81%
    07:00 +1°C° 0 mm 4 mps 749 mmHg 79%
    08:00 +3°C° 0 mm 4 mps 749 mmHg 77%
    09:00 +4°C° 0 mm 4 mps 749 mmHg 75%
    10:00 +3°C° 0 mm 5 mps 748 mmHg 74%
    11:00 +4°C° 0 mm 6 mps 748 mmHg 72%
    12:00 +5°C° 0 mm 6 mps 747 mmHg 71%
    13:00 +5°C° 0 mm 6 mps 747 mmHg 74%
    14:00 +6°C° 0 mm 5 mps 746 mmHg 76%
    15:00 +6°C° 0 mm 4 mps 745 mmHg 79%
    16:00 +5°C° 0.5 mm 4 mps 744 mmHg 83%
    17:00 +5°C° 0.5 mm 3 mps 743 mmHg 87%
    18:00 +4°C° 0.5 mm 3 mps 742 mmHg 91%
    19:00 +5°C° 2.4 mm 3 mps 740 mmHg 91%
    20:00 +5°C° 2.4 mm 4 mps 739 mmHg 92%
    21:00 +5°C° 2.4 mm 5 mps 738 mmHg 93%
    22:00 +6°C° 2.4 mm 5 mps 737 mmHg 91%
    23:00 +7°C° 2.4 mm 6 mps 736 mmHg 89%
    Show more